• In Hungary
  • List of Countries
  • For 7 days
  • Water Temperature
  • Satellite Maps
  • Weather Map
  • News
  • Weather Widgets
  • user-avatar
    Login

    Hourly Weather Jinotepe

    Today, 16 November, Friday

    Time Temperature Precipitation Wind Pressure Humidity
    00:00 +23°C° 0 mm 4 mps 710 mmHg 79%
    01:00 +22°C° 0 mm 4 mps 710 mmHg 79%
    02:00 +22°C° 0 mm 4 mps 710 mmHg 80%
    03:00 +22°C° 0 mm 4 mps 710 mmHg 80%
    04:00 +22°C° 0 mm 4 mps 710 mmHg 80%
    05:00 +22°C° 0 mm 4 mps 710 mmHg 80%
    06:00 +22°C° 0 mm 4 mps 710 mmHg 79%
    07:00 +23°C° 0 mm 5 mps 711 mmHg 74%
    08:00 +26°C° 0 mm 5 mps 711 mmHg 68%
    09:00 +27°C° 0 mm 6 mps 712 mmHg 63%
    10:00 +28°C° 0 mm 6 mps 711 mmHg 60%
    11:00 +29°C° 0 mm 6 mps 711 mmHg 57%
    12:00 +32°C° 0 mm 6 mps 711 mmHg 54%
    13:00 +30°C° 0 mm 6 mps 710 mmHg 55%
    14:00 +30°C° 0 mm 5 mps 710 mmHg 57%
    15:00 +30°C° 0 mm 5 mps 709 mmHg 58%
    16:00 +29°C° 0.1 mm 5 mps 709 mmHg 64%
    17:00 +27°C° 0.1 mm 4 mps 709 mmHg 70%
    18:00 +26°C° 0.1 mm 4 mps 709 mmHg 76%
    19:00 +25°C° 0 mm 4 mps 710 mmHg 77%
    20:00 +25°C° 0 mm 4 mps 710 mmHg 78%
    21:00 +23°C° 0 mm 4 mps 710 mmHg 79%
    22:00 +23°C° 0 mm 4 mps 710 mmHg 80%
    23:00 +23°C° 0 mm 4 mps 710 mmHg 80%

    Tomorrow, 17 November, Saturday

    Time Temperature Precipitation Wind Pressure Humidity
    00:00 +23°C° 0 mm 4 mps 710 mmHg 81%
    01:00 +22°C° 0 mm 4 mps 710 mmHg 81%
    02:00 +22°C° 0 mm 4 mps 710 mmHg 81%
    03:00 +22°C° 0 mm 4 mps 709 mmHg 81%
    04:00 +22°C° 0 mm 4 mps 710 mmHg 81%
    05:00 +22°C° 0 mm 4 mps 710 mmHg 81%
    06:00 +22°C° 0 mm 4 mps 710 mmHg 81%
    07:00 +23°C° 0 mm 4 mps 711 mmHg 76%
    08:00 +26°C° 0 mm 5 mps 712 mmHg 70%
    09:00 +28°C° 0 mm 5 mps 712 mmHg 65%
    10:00 +29°C° 0 mm 5 mps 712 mmHg 62%
    11:00 +30°C° 0 mm 5 mps 711 mmHg 59%
    12:00 +30°C° 0 mm 6 mps 711 mmHg 56%
    13:00 +30°C° 0.1 mm 5 mps 710 mmHg 58%
    14:00 +30°C° 0.1 mm 5 mps 710 mmHg 60%
    15:00 +30°C° 0.1 mm 5 mps 709 mmHg 62%
    16:00 +28°C° 0.3 mm 5 mps 709 mmHg 68%
    17:00 +27°C° 0.3 mm 4 mps 709 mmHg 73%
    18:00 +25°C° 0.3 mm 4 mps 709 mmHg 79%
    19:00 +25°C° 0 mm 4 mps 710 mmHg 79%
    20:00 +25°C° 0 mm 4 mps 710 mmHg 79%
    21:00 +23°C° 0 mm 5 mps 711 mmHg 79%
    22:00 +23°C° 0 mm 5 mps 711 mmHg 80%
    23:00 +23°C° 0 mm 4 mps 711 mmHg 80%

    Day after tomorrow, 18 November, Sunday

    Time Temperature Precipitation Wind Pressure Humidity
    00:00 +23°C° 0 mm 4 mps 711 mmHg 81%
    01:00 +23°C° 0 mm 4 mps 710 mmHg 81%
    02:00 +23°C° 0 mm 4 mps 710 mmHg 81%
    03:00 +22°C° 0 mm 4 mps 710 mmHg 81%
    04:00 +22°C° 0 mm 4 mps 710 mmHg 81%
    05:00 +22°C° 0 mm 4 mps 710 mmHg 81%
    06:00 +22°C° 0 mm 4 mps 710 mmHg 81%
    07:00 +25°C° 0 mm 5 mps 711 mmHg 76%
    08:00 +26°C° 0 mm 5 mps 711 mmHg 71%
    09:00 +28°C° 0 mm 6 mps 712 mmHg 65%
    10:00 +29°C° 0 mm 6 mps 712 mmHg 63%
    11:00 +29°C° 0 mm 6 mps 711 mmHg 61%
    12:00 +30°C° 0 mm 6 mps 711 mmHg 59%
    13:00 +30°C° 0 mm 6 mps 710 mmHg 60%
    14:00 +30°C° 0 mm 6 mps 710 mmHg 61%
    15:00 +30°C° 0 mm 5 mps 709 mmHg 62%
    16:00 +29°C° 0 mm 5 mps 709 mmHg 66%
    17:00 +27°C° 0 mm 4 mps 709 mmHg 70%
    18:00 +26°C° 0 mm 4 mps 709 mmHg 74%
    19:00 +26°C° 0 mm 4 mps 710 mmHg 76%
    20:00 +25°C° 0 mm 4 mps 711 mmHg 77%
    21:00 +25°C° 0 mm 4 mps 711 mmHg 79%
    22:00 +25°C° 0 mm 5 mps 711 mmHg 79%
    23:00 +23°C° 0 mm 5 mps 711 mmHg 80%

    19 November, Monday

    Time Temperature Precipitation Wind Pressure Humidity
    00:00 +23°C° 0 mm 5 mps 711 mmHg 80%
    01:00 +23°C° 0 mm 5 mps 710 mmHg 81%
    02:00 +23°C° 0 mm 5 mps 710 mmHg 81%
    03:00 +23°C° 0 mm 5 mps 709 mmHg 81%
    04:00 +23°C° 0 mm 5 mps 710 mmHg 81%
    05:00 +23°C° 0 mm 5 mps 710 mmHg 81%
    06:00 +22°C° 0 mm 5 mps 710 mmHg 81%
    07:00 +25°C° 0 mm 5 mps 711 mmHg 77%
    08:00 +26°C° 0 mm 6 mps 711 mmHg 73%
    09:00 +27°C° 0 mm 6 mps 712 mmHg 68%
    10:00 +28°C° 0 mm 6 mps 711 mmHg 65%
    11:00 +29°C° 0 mm 6 mps 711 mmHg 62%
    12:00 +30°C° 0 mm 6 mps 711 mmHg 59%
    13:00 +30°C° 0 mm 6 mps 710 mmHg 60%
    14:00 +30°C° 0 mm 6 mps 709 mmHg 60%
    15:00 +30°C° 0 mm 5 mps 708 mmHg 61%
    16:00 +28°C° 0.1 mm 5 mps 709 mmHg 66%
    17:00 +27°C° 0.1 mm 4 mps 709 mmHg 71%
    18:00 +26°C° 0.1 mm 4 mps 709 mmHg 76%
    19:00 +25°C° 0 mm 4 mps 710 mmHg 76%
    20:00 +25°C° 0 mm 4 mps 710 mmHg 77%
    21:00 +25°C° 0 mm 4 mps 711 mmHg 77%
    22:00 +25°C° 0 mm 4 mps 711 mmHg 78%
    23:00 +23°C° 0 mm 4 mps 711 mmHg 78%

    20 November, Tuesday

    Time Temperature Precipitation Wind Pressure Humidity
    00:00 +23°C° 0 mm 4 mps 710 mmHg 79%
    01:00 +23°C° 0 mm 4 mps 710 mmHg 79%
    02:00 +23°C° 0 mm 4 mps 709 mmHg 79%
    03:00 +23°C° 0 mm 4 mps 709 mmHg 79%
    04:00 +23°C° 0 mm 4 mps 709 mmHg 79%
    05:00 +22°C° 0 mm 4 mps 710 mmHg 79%
    06:00 +22°C° 0 mm 4 mps 710 mmHg 79%
    07:00 +25°C° 0 mm 5 mps 711 mmHg 75%
    08:00 +26°C° 0 mm 5 mps 711 mmHg 70%
    09:00 +27°C° 0 mm 6 mps 712 mmHg 66%
    10:00 +28°C° 0 mm 6 mps 712 mmHg 63%
    11:00 +29°C° 0 mm 6 mps 711 mmHg 60%
    12:00 +30°C° 0 mm 6 mps 711 mmHg 57%
    13:00 +30°C° 0.1 mm 5 mps 710 mmHg 60%
    14:00 +30°C° 0.1 mm 5 mps 709 mmHg 62%
    15:00 +29°C° 0.1 mm 5 mps 709 mmHg 64%
    16:00 +28°C° 0 mm 5 mps 709 mmHg 68%
    17:00 +27°C° 0 mm 4 mps 710 mmHg 72%
    18:00 +26°C° 0 mm 4 mps 710 mmHg 76%
    19:00 +25°C° 0 mm 4 mps 710 mmHg 77%
    20:00 +25°C° 0 mm 4 mps 711 mmHg 77%
    21:00 +25°C° 0 mm 4 mps 711 mmHg 78%
    22:00 +25°C° 0 mm 4 mps 711 mmHg 79%
    23:00 +23°C° 0 mm 4 mps 711 mmHg 79%

    21 November, Wednesday

    Time Temperature Precipitation Wind Pressure Humidity
    00:00 +23°C° 0 mm 4 mps 711 mmHg 79%
    01:00 +23°C° 0 mm 4 mps 711 mmHg 79%
    02:00 +23°C° 0 mm 4 mps 710 mmHg 79%
    03:00 +23°C° 0 mm 4 mps 710 mmHg 78%
    04:00 +23°C° 0 mm 4 mps 711 mmHg 78%
    05:00 +23°C° 0 mm 4 mps 711 mmHg 78%
    06:00 +23°C° 0 mm 4 mps 711 mmHg 78%
    07:00 +25°C° 0 mm 5 mps 712 mmHg 74%
    08:00 +26°C° 0 mm 5 mps 712 mmHg 71%
    09:00 +27°C° 0 mm 6 mps 713 mmHg 67%
    10:00 +28°C° 0 mm 6 mps 712 mmHg 63%
    11:00 +29°C° 0 mm 6 mps 712 mmHg 60%
    12:00 +30°C° 0 mm 6 mps 711 mmHg 56%
    13:00 +30°C° 0 mm 5 mps 711 mmHg 57%
    14:00 +30°C° 0 mm 5 mps 710 mmHg 58%
    15:00 +30°C° 0 mm 5 mps 709 mmHg 59%
    16:00 +28°C° 0.1 mm 4 mps 710 mmHg 64%
    17:00 +27°C° 0.1 mm 4 mps 710 mmHg 68%
    18:00 +26°C° 0.1 mm 4 mps 711 mmHg 73%
    19:00 +26°C° 0 mm 4 mps 711 mmHg 74%
    20:00 +25°C° 0 mm 4 mps 711 mmHg 75%
    21:00 +25°C° 0 mm 5 mps 712 mmHg 76%
    22:00 +25°C° 0 mm 5 mps 712 mmHg 76%
    23:00 +23°C° 0 mm 5 mps 711 mmHg 77%
    Show more